{"data":{"norad_id":56725,"epoch":"2026-09-19T20:45:35.518752Z","epoch_age_seconds":73179,"freshness":"FRESH","line1":"1 56725U 23068R   26262.86499443 -.00000006  00000+0 -48374-4 0  9996","line2":"2 56725  86.6744  55.2645 0001655  94.2350 265.8973 13.22475071170458","mean_motion":13.22475071,"eccentricity":0.0001655,"inclination_deg":86.6744,"raan_deg":55.2645,"arg_perigee_deg":94.235,"mean_anomaly_deg":265.8973,"bstar":-4.8374e-5,"rev_number":17045,"period_min":108.88674059551,"perigee_km":1174.0307872075,"apogee_km":1176.5309685251,"semimajor_km":7553.4178778663,"source":"CELESTRAK","updated_at":"2026-09-20T09:00:44.797609Z"}}